This demonstration page uses our WeatherBlox Daily Observations layout. Learn more.

Hourly Observations for February 23, 2019

Temp ( °F °C ) Dew Point ( °F °C ) Humidity (%) Winds ( mph kmh ) Pressure ( in mb ) Visibility ( mi km ) Precip ( " mm )
12:15 am 00:15 Cloudy with Mist and Fog 29 -1.5 29 -1.5 100 100 ENE 3 6 30.02 1017 1.5 2.41401 0 0
12:35 am 00:35 Cloudy with Mist and Fog 29 -1.5 29 -1.5 100 100 ENE 3 6 30.01 1016 1.25 2.011675 0 0
12:55 am 00:55 Cloudy with Mist and Fog 29 -1.5 29 -1.5 100 100 NE 3 6 29.99 1016 1 1.60934 0 0
1:15 am 01:15 Cloudy with Mist and Fog 29 -1.5 29 -1.5 100 100 NE 5 7 29.99 1016 0.75 1.207005 0 0
1:35 am 01:35 Cloudy with Freezing Fog 29 -1.6 29 -1.6 100 100 NE 6 9 29.98 1015 0.5 0.80467 0 0
1:55 am 01:55 Cloudy with Freezing Fog 29 -1.9 29 -1.9 100 100 NE 6 9 29.97 1015 0.5 0.80467 0 0
2:15 am 02:15 Cloudy with Freezing Fog 28 -2 28 -2 100 100 NE 6 9 29.96 1015 0.25 0.402335 0 0
2:35 am 02:35 Cloudy with Freezing Fog 28 -2 28 -2 100 100 NE 8 13 29.96 1015 0.5 0.80467 0 0
2:55 am 02:55 Cloudy with Freezing Fog 28 -2.1 28 -2.1 100 100 NE 7 11 29.96 1015 0.5 0.80467 0 0
3:15 am 03:15 Cloudy with Freezing Fog 28 -2.1 28 -2.1 100 100 ENE 6 9 29.97 1015 0.5 0.80467 0 0
3:35 am 03:35 Cloudy with Freezing Fog 28 -2.1 28 -2.1 100 100 ENE 7 11 29.97 1015 0.5 0.80467 0 0
3:55 am 03:55 Cloudy with Freezing Fog 28 -2.2 28 -2.2 100 100 NE 7 11 29.96 1014 0.5 0.80467 0 0
4:15 am 04:15 Cloudy with Freezing Fog 28 -2.3 28 -2.3 100 100 NE 7 11 29.95 1014 0.25 0.402335 0 0
4:35 am 04:35 Cloudy with Freezing Fog 28 -2.5 28 -2.5 100 100 NNE 9 15 29.94 1014 0.5 0.80467 0 0
4:55 am 04:55 Cloudy with Freezing Fog 28 -2.5 28 -2.5 100 100 NE 13 20 29.91 1013 0.5 0.80467 0 0
5:15 am 05:15 Cloudy with Freezing Fog 27 -2.6 27 -2.6 100 100 NNE 8 13 29.92 1013 0.5 0.80467 0 0
5:35 am 05:35 Cloudy with Freezing Fog 27 -2.6 27 -2.6 100 100 NNE 10 17 29.93 1014 0.5 0.80467 0 0
5:55 am 05:55 Cloudy with Mist and Fog 27 -2.7 27 -2.7 100 100 N 10 17 29.92 1013 1 1.60934 0 0
6:15 am 06:15 Cloudy with Mist and Fog 27 -2.8 27 -2.8 100 100 NNE 9 15 29.94 1014 1 1.60934 0 0
6:35 am 06:35 Cloudy with Mist and Fog 27 -2.8 27 -2.8 100 100 NE 6 9 29.96 1015 1.5 2.41401 0 0
6:55 am 06:55 Cloudy with Mist and Fog 27 -2.8 27 -2.8 100 100 ENE 3 6 29.97 1015 1.75 2.816345 0 0
7:15 am 07:15 Cloudy with Mist and Fog 27 -2.8 27 -2.8 100 100 NNE 6 9 29.95 1014 1.5 2.41401 0 0
7:35 am 07:35 Cloudy with Mist and Fog 27 -2.8 27 -2.8 100 100 NE 7 11 29.94 1014 0.75 1.207005 0 0
7:55 am 07:55 Cloudy with Freezing Fog 27 -2.7 27 -2.7 100 100 NNE 8 13 29.93 1014 0.5 0.80467 0 0
8:15 am 08:15 Cloudy with Freezing Fog 27 -2.8 27 -2.8 100 100 N 9 15 29.92 1013 0.5 0.80467 0 0
8:35 am 08:35 Cloudy with Freezing Fog 27 -2.7 27 -2.7 100 100 N 9 15 29.93 1014 0.5 0.80467 0 0
8:55 am 08:55 Cloudy with Mist and Fog 27 -2.6 27 -2.6 100 100 N 10 17 29.91 1013 1 1.60934 0 0
9:15 am 09:15 Cloudy with Mist and Fog 27 -2.6 27 -2.6 100 100 N 16 26 29.89 1012 1.25 2.011675 0 0
9:35 am 09:35 Cloudy with Mist and Fog 27 -2.7 27 -2.7 100 100 N 15 24 29.88 1012 2 3.21868 0 0
9:55 am 09:55 Cloudy with Mist and Fog 27 -2.8 27 -2.8 100 100 N 17 28 29.87 1012 2.5 4.02335 0 0
10:15 am 10:15 Cloudy with Mist and Fog 27 -3 27 -3 100 100 N 16 26 29.87 1012 3 4.82802 0 0
10:35 am 10:35 Cloudy with Mist and Fog 27 -3 27 -3 100 100 N 17 28 29.87 1012 3 4.82802 0 0
10:55 am 10:55 Cloudy with Mist and Fog 27 -3 27 -3 100 100 N 24 39 29.86 1011 4 6.43736 0 0
11:15 am 11:15 Cloudy with Mist and Fog 27 -2.8 27 -2.8 100 100 N 26 43 29.85 1011 4 6.43736 0 0
11:35 am 11:35 Cloudy with Mist and Fog 27 -2.7 27 -2.7 100 100 N 26 43 29.83 1010 3 4.82802 0 0
11:55 am 11:55 Cloudy with Mist and Fog 27 -2.6 27 -2.6 100 100 N 21 33 29.83 1010 4 6.43736 0 0
12:15 pm 12:15 Windy with Snow Likely 27 -2.6 27 -2.7 99 99 N 20 31 29.84 1010 3 4.82802 0 0
12:35 pm 12:35 Windy with Snow Likely 27 -2.7 26 -3.5 94 94 N 20 31 29.84 1010 2.5 4.02335 0 0
12:55 pm 12:55 Windy with Snow Likely 27 -3 26 -3.5 96 96 N 21 33 29.85 1011 0.5 0.80467 0 0
1:15 pm 13:15 Windy with Snow Likely 26 -3.2 25 -3.8 96 96 N 22 35 29.84 1011 0.5 0.80467 0 0
1:35 pm 13:35 Windy with Snow Likely 26 -3.3 25 -3.8 96 96 N 22 35 29.84 1010 0.5 0.80467 0 0
1:55 pm 13:55 Cloudy with Light Snow 26 -3.4 25 -3.7 98 98 N 17 28 29.84 1010 0.75 1.207005 0 0
2:15 pm 14:15 Cloudy with Snow 26 -3.5 25 -3.8 98 98 N 17 28 29.84 1010 0.5 0.80467 0 0
2:35 pm 14:35 Cloudy with Snow 26 -3.5 25 -3.7 99 99 NNW 18 30 29.84 1010 0.5 0.80467 0.01 0.254
2:55 pm 14:55 Windy with Snow Likely 26 -3.6 25 -4.1 96 96 NNW 25 41 29.84 1010 0.5 0.80467 0.01 0.254
3:15 pm 15:15 Cloudy with Light Snow 25 -3.7 25 -4.1 97 97 NNW 17 28 29.85 1011 0.75 1.207005 0 0
3:35 pm 15:35 Cloudy with Light Snow 25 -3.8 24 -4.2 97 97 NNW 17 28 29.85 1011 0.75 1.207005 0 0
3:55 pm 15:55 Cloudy with Light Snow 26 -3.5 24 -4.2 95 95 NNW 17 28 29.86 1011 2 3.21868 0 0
4:15 pm 16:15 Cloudy with Light Snow 26 -3.5 24 -4.5 93 93 NNW 16 26 29.88 1012 1.25 2.011675 0 0
4:35 pm 16:35 Cloudy with Light Snow 26 -3.5 24 -4.4 94 94 NNW 18 30 29.89 1012 1.75 2.816345 0 0
4:55 pm 16:55 Cloudy 27 -2.8 23 -4.9 86 86 NW 18 30 29.88 1012 10 16.0934 0 0
5:15 pm 17:15 Cloudy 27 -2.6 23 -5 84 84 NW 15 24 29.89 1012 10 16.0934 0 0
5:35 pm 17:35 Cloudy 28 -2.5 23 -5.2 82 82 NW 14 22 29.91 1013 10 16.0934 0 0
5:55 pm 17:55 Cloudy 28 -2.3 23 -5.1 81 81 NW 16 26 29.93 1013 10 16.0934 0 0
6:15 pm 18:15 Cloudy 28 -2 22 -5.3 78 78 NW 15 24 29.92 1013 10 16.0934 0 0
6:35 pm 18:35 Cloudy 28 -2.1 21 -5.9 76 76 NNW 15 24 29.94 1014 10 16.0934 0 0
6:55 pm 18:55 Cloudy 27 -2.6 21 -6.1 77 77 NW 16 26 29.96 1015 10 16.0934 0 0
7:15 pm 19:15 Mostly Cloudy 28 -2.3 20 -6.7 72 72 NW 16 26 29.98 1015 10 16.0934 0 0
7:35 pm 19:35 Partly Cloudy 25 -3.8 19 -7.5 76 76 NW 15 24 30 1016 10 16.0934 0 0
7:55 pm 19:55 Clear 25 -3.9 18 -7.7 75 75 NW 15 24 30.01 1016 10 16.0934 0 0
8:15 pm 20:15 Clear 26 -3.5 18 -7.9 72 72 NW 15 24 30.02 1017 10 16.0934 0 0
8:35 pm 20:35 Clear 25 -3.9 18 -8 73 73 WNW 14 22 30.04 1017 10 16.0934 0 0
8:55 pm 20:55 Clear 25 -3.9 17 -8.5 71 71 WNW 15 24 30.05 1018 10 16.0934 0 0
9:15 pm 21:15 Clear 26 -3.1 18 -7.9 70 70 WNW 20 31 30.05 1018 10 16.0934 0 0
9:35 pm 21:35 Clear 26 -3.1 18 -8 69 69 NW 20 31 30.06 1018 10 16.0934 0 0
9:55 pm 21:55 Clear 26 -3.1 18 -8 69 69 NW 21 33 30.08 1019 10 16.0934 0 0
10:15 pm 22:15 Clear 26 -3.4 17 -8.2 70 70 NW 21 33 30.1 1019 10 16.0934 0 0
10:35 pm 22:35 Clear 25 -4 17 -8.5 71 71 NW 16 26 30.11 1020 10 16.0934 0 0
10:55 pm 22:55 Clear 25 -3.7 16 -8.7 69 69 WNW 20 31 30.12 1020 10 16.0934 0 0
11:15 pm 23:15 Clear 25 -3.9 16 -9 68 68 WNW 20 31 30.12 1020 10 16.0934 0 0
11:35 pm 23:35 Clear 25 -4.1 15 -9.2 68 68 NW 17 28 30.13 1020 10 16.0934 0 0
11:55 pm 23:55 Clear 25 -3.7 15 -9.3 65 65 NW 20 31 30.14 1021 10 16.0934 0 0

Powered by AerisWeather